Location: Vysna Sitnica
(49.0952°N, 21.7906°E)
Time: 21:12:04
(UTC+01:00)

ISS - Visible Passes

Search period start: 19 February 2018 00:00
Search period end: 01 March 2018 00:00
Orbit: 403 x 407 km, 51.6° (Epoch: 20 February)

Date Brightness Start Highest point End Pass type
(mag) Time Alt. Az. Time Alt. Az. Time Alt. Az.
25 Feb -0.5 05:43:53 10° SSE 05:44:51 11° SE 05:45:49 10° ESE visible
27 Feb -1.4 05:33:52 10° SSW 05:36:26 21° SE 05:39:01 10° E visible
28 Feb -0.9 04:42:43 10° SSE 04:44:22 13° SE 04:46:02 10° ESE visible
